THOR AGENA D R/B, 815

Orbit data source: Space-Track

THOR AGENA D R/B, 815 is space debris in SSO originally from a launch on Thu, 18 Jun 1964 UTC launched from the Air Force Western Test Range (AFWTR). Debris objects in space refer to the collection of defunct objects orbiting the Earth. Examples of debris include non-operational satellites, rocket bodies, and fragments generated from explosions, collisions, or faulty payload assembly.

Loading next visibility...
Identifier
815, 1964-031C
Orbit
SSO
Country
Flag of USUS
Related business
Manufacturer
LMSC
Mission
Spacecraft
Bus & Motor
AGENA D, Unknown motor
Mass
600 kg wet, 600 kg dry
Launch date (UTC)
1964-06-18 (62 years ago)
Launch vehicle
Unknown
Launch site
Air Force Western Test Range (AFWTR)
Object type
Payload
Rocket body
Debris
Shape & HBR
Unknown
Radar Cross Section
Large (>1 m²)

Expand to show TLE details & history
Last TLE update: 1 day ago

TLE from 1 day ago
0 THOR AGENA D R/B
1 00815U 64031C   26175.12268720  .00000101  00000-0  62136-4 0  9991
2 00815  99.8218 126.3107 0010730 280.0501  79.9466 14.28508863221999
Epoch: 2026-06-24T02:56Z
TLE epoch observation values (Epoch: 2026-06-24T02:56:40.174Z)
Latitude
0.00004°
Longitude
169.85887°
Altitude
798.271 km
Speed
7.455 km/s
True Right ascension
08h 25m 14s
True Declination
0° 00' 00"
Sunlit
Object was in daylight at epoch
Visualization orbit readout
Latitude
Unknown
Longitude
Unknown
Altitude
Unknown
Speed
Unknown
Apparent Right ascension
Unknown
Apparent Declination
Unknown
Sunlit
N/A
Visualization observer readout
Local Sidereal Time
13:53:22
Azimuth
Unknown
Elevation
Unknown
Doppler factor
Unknown
Orbital elements
Apogee altitude
801.619 km
Perigee altitude
786.228 km
Semi-major axis
7,172.06 km
Eccentricity
0.00107
Inclination
99.8218°
RAAN
126.3107°
Arg. of periapsis
280.0501°
True anomaly
80.0677°
Mean anomaly
79.9466°
Eccentric anomaly
80.00715°
Mean motion
3.57336 °/min
Orbital period
100.75 mins
BSTAR
0.000062136
Loading maneuver chart data...
Computing Atmospheric mass density...
Loading historical data...
Loading historical data...
Loading historical data...
Loading historical data...
Loading historical data...
Loading historical data...
Loading historical data...
Other satellites on launch #31 in the year 1964 (1964-06-18 UTC)

Documentation

Showing up to 5 results
|